Date,TemperatureHighF,TemperatureAvgF,TemperatureLowF,DewpointHighF,DewpointAvgF,DewpointLowF,HumidityHigh,HumidityAvg,HumidityLow,PressureMaxIn,PressureMinIn,WindSpeedMaxMPH,WindSpeedAvgMPH,GustSpeedMaxMPH,PrecipitationSumIn
2013-1-1,42.4,37.7,32.7,39.1,33.2,25.3,90,84,74,30.22,30.09,0,0,0,0.26
2013-1-2,41.5,37.8,35.4,39.1,34.6,31.7,91,88,82,30.24,30.06,7,0,7,0.02
2013-1-3,39.3,34.1,26.2,33.5,29.2,21.5,89,83,72,30.39,30.20,8,0,8,0.00
2013-1-4,38.4,29.4,22.4,27.6,21.7,18.1,87,74,53,30.46,30.37,9,0,12,0.00
2013-1-5,47.3,33.7,19.9,31.2,23.6,15.1,85,68,51,30.48,30.32,0,0,0,0.00
2013-1-6,44.2,38.6,35.2,36.2,31.5,28.0,82,76,66,30.34,30.20,7,0,9,0.00
2013-1-7,50.1,38.2,26.2,35.0,27.0,20.7,84,65,46,30.48,30.33,8,0,8,0.00
2013-1-8,52.8,39.6,26.2,40.7,30.7,19.9,81,71,58,30.52,30.40,4,0,7,0.00
2013-1-9,48.0,43.9,38.4,42.8,39.0,32.9,85,83,79,30.57,30.45,0,0,0,0.00
2013-1-10,64.5,51.9,41.7,54.5,45.5,38.1,90,79,66,30.59,30.41,11,1,13,0.00
2013-1-11,58.8,54.0,49.2,53.6,49.8,44.0,90,86,74,30.42,30.24,11,1,14,0.09
2013-1-12,68.7,59.3,52.5,61.8,54.5,49.6,92,84,73,30.32,30.21,17,1,17,0.00
2013-1-13,70.1,62.5,58.1,57.6,54.5,51.2,83,75,64,30.24,30.16,13,1,14,0.00
2013-1-14,60.9,51.8,43.3,56.0,49.1,41.1,92,91,83,30.34,30.17,7,0,7,1.63
2013-1-15,51.8,47.4,43.5,49.7,45.4,41.3,93,93,92,30.27,30.12,7,0,7,1.00
2013-1-16,56.3,50.7,46.9,54.5,48.8,45.0,94,93,93,30.16,30.06,0,0,4,0.24
2013-1-17,48.5,40.1,31.4,46.6,38.2,29.2,93,93,92,30.34,29.96,8,1,13,1.47
2013-1-18,41.1,32.2,27.3,32.2,27.7,24.2,92,84,65,30.59,30.34,0,0,3,0.00
2013-1-19,50.1,35.7,23.3,38.0,28.4,20.5,92,76,53,30.53,30.27,3,0,6,0.00
2013-1-20,51.4,37.0,24.6,39.3,28.8,21.0,90,73,54,30.28,30.19,5,0,8,0.00
2013-1-21,48.0,34.2,24.0,35.2,22.7,12.9,89,65,41,30.22,30.11,10,1,10,0.00
2013-1-22,29.1,24.6,19.0,13.1,6.6,2.3,58,47,33,30.33,30.17,10,1,11,0.00
2013-1-23,41.7,30.5,23.1,24.8,14.5,4.8,70,52,44,30.39,30.17,5,0,5,0.00
2013-1-24,42.0,31.7,22.8,31.0,16.3,7.3,78,54,36,30.45,30.13,16,2,16,0.00
2013-1-25,37.2,27.4,21.5,33.6,17.3,5.5,87,66,48,30.48,30.15,14,2,14,0.02
2013-1-26,43.7,35.2,26.7,33.4,27.1,19.4,88,73,52,30.43,30.21,4,0,7,0.00
2013-1-27,45.5,34.4,22.4,32.6,25.9,17.2,85,72,60,30.55,30.42,11,0,11,0.02
2013-1-28,63.1,47.5,32.7,49.0,37.8,26.9,82,70,54,30.50,30.32,9,0,9,0.00
2013-1-29,69.4,54.1,38.4,54.7,45.8,34.0,88,75,53,30.35,30.12,15,1,15,0.00
2013-1-30,64.0,56.9,42.9,58.4,52.6,40.2,91,86,80,30.12,29.66,19,2,19,1.49
2013-1-31,42.9,33.2,27.3,40.2,23.7,19.6,90,69,51,30.12,29.73,16,2,16,0.02
2013-2-1,39.0,25.2,18.3,28.4,15.0,8.5,83,65,52,30.42,30.03,14,2,19,0.00
2013-2-2,42.9,28.5,16.3,30.3,19.1,8.4,82,68,51,30.42,30.12,8,0,11,0.00
2013-2-3,40.4,33.4,28.0,31.5,25.9,19.7,83,74,57,30.19,30.04,14,1,14,0.04
2013-2-4,50.7,35.2,22.8,32.4,23.2,16.3,78,63,43,30.22,30.06,11,0,11,0.00
2013-2-5,52.8,40.7,30.9,39.4,29.9,21.2,76,66,52,30.13,30.04,3,0,4,0.00
2013-2-6,54.6,41.6,29.6,37.3,28.2,22.0,85,62,36,30.33,30.13,7,0,7,0.00
2013-2-7,46.5,39.3,32.1,36.0,30.7,22.3,86,72,56,30.34,30.10,2,0,11,0.43
2013-2-8,47.8,40.2,33.6,42.3,34.8,26.4,90,82,62,30.29,30.03,12,2,16,0.02
2013-2-9,51.9,37.7,27.6,30.1,24.9,21.3,80,62,37,30.41,30.26,9,0,9,0.00
2013-2-10,50.7,43.0,31.8,40.7,28.2,22.4,88,58,40,30.44,30.20,15,1,15,0.30
2013-2-11,55.2,49.2,41.3,51.1,44.1,34.4,90,83,73,30.24,30.13,13,1,14,0.00
2013-2-12,51.9,43.0,34.3,34.5,30.8,25.7,82,63,44,30.27,30.04,7,0,7,0.11
2013-2-13,49.6,41.3,34.8,43.0,35.7,28.9,88,81,65,30.06,29.77,10,1,14,0.08
2013-2-14,50.5,39.8,31.8,33.0,28.3,23.1,80,65,45,30.16,30.04,7,0,7,0.00
2013-2-15,58.4,38.4,24.9,40.0,28.9,19.7,86,70,43,30.21,30.07,8,0,9,0.00
2013-2-16,33.0,29.5,22.6,27.8,21.8,12.3,84,73,53,30.15,30.01,13,1,16,0.02
2013-2-17,33.6,25.4,19.5,14.7,10.5,7.8,64,53,40,30.32,30.11,16,2,16,0.00
2013-2-18,53.4,35.2,16.8,31.5,19.6,7.9,77,55,40,30.41,30.21,18,1,20,0.00
2013-2-19,53.9,42.2,33.4,42.6,26.7,15.0,79,56,37,30.23,30.01,20,1,20,0.02
2013-2-20,44.9,34.0,26.2,16.9,13.1,8.2,55,43,28,30.26,30.18,9,0,9,0.00
2013-2-21,59.7,39.6,20.4,30.5,18.4,8.7,70,45,22,30.31,30.15,3,0,8,0.16
2013-2-22,46.7,40.0,34.8,39.7,34.5,30.5,85,81,71,30.32,30.16,13,1,13,0.21
2013-2-23,53.7,45.5,39.3,50.2,41.8,35.4,91,87,84,30.18,29.96,4,0,4,0.20
2013-2-24,52.1,42.1,30.5,40.2,30.7,20.6,88,67,38,30.19,30.00,8,0,10,0.00
2013-2-25,47.1,36.7,26.9,30.2,25.6,19.4,81,65,50,30.22,30.09,12,0,13,0.00
2013-2-26,45.1,38.6,34.1,41.9,34.5,27.4,89,85,68,30.09,29.66,18,1,18,0.67
2013-2-27,51.2,41.8,35.4,38.0,33.5,30.2,89,74,54,29.93,29.79,6,0,7,0.02
2013-2-28,36.8,33.6,31.1,31.8,26.2,22.9,83,74,66,30.04,29.86,10,1,10,0.02
2013-3-1,37.9,33.0,30.0,30.0,27.2,24.2,86,79,70,30.06,30.00,7,0,8,0.00
2013-3-2,39.3,31.8,26.4,29.1,25.7,19.4,85,78,63,30.08,29.98,9,1,12,0.00
2013-3-3,32.1,26.5,22.8,19.7,16.9,14.4,78,67,56,30.14,30.06,11,1,12,0.00
2013-3-4,49.8,35.5,23.9,24.4,19.0,13.7,70,53,32,30.24,30.13,5,0,5,0.00
2013-3-5,48.5,38.1,31.2,45.3,32.0,20.7,89,79,58,30.16,29.77,12,0,20,0.70
2013-3-6,32.7,28.2,24.9,27.9,23.8,21.3,87,84,78,30.28,29.85,15,3,15,0.00
2013-3-7,37.7,30.7,27.3,29.0,24.5,21.9,84,78,68,30.39,30.27,11,1,12,0.00
2013-3-8,48.3,34.1,22.6,32.0,23.8,18.2,85,68,47,30.44,30.36,12,0,12,0.00
2013-3-9,65.8,44.1,22.8,38.9,27.6,16.6,82,56,35,30.42,30.30,9,0,12,0.00
2013-3-10,66.2,54.0,44.2,38.5,32.4,27.4,54,44,35,30.36,30.23,16,2,22,0.00
2013-3-11,54.6,51.5,49.2,48.2,44.2,33.8,89,77,49,30.25,29.96,15,2,20,0.55
2013-3-12,51.4,42.2,33.9,48.2,36.7,27.9,90,81,63,30.17,29.93,13,1,13,0.20
2013-3-13,44.0,34.3,27.6,32.1,24.0,16.4,86,67,47,30.31,30.15,15,1,89,0.00
2013-3-14,45.1,34.2,23.9,21.0,17.3,13.9,67,51,36,30.40,30.29,13,1,13,0.00
2013-3-15,68.9,47.0,28.5,43.2,29.8,14.8,71,53,31,30.31,30.07,16,0,16,0.00
2013-3-16,76.8,59.3,42.9,51.9,42.8,34.7,78,57,36,30.06,29.91,8,0,10,0.00
2013-3-17,75.9,60.2,48.7,52.0,45.1,40.0,75,59,38,30.11,29.99,14,1,14,0.00
2013-3-18,51.6,44.8,41.5,42.8,39.0,36.0,89,80,69,30.15,29.95,20,2,20,0.43
2013-3-19,55.4,44.5,34.3,40.6,31.4,17.0,90,64,35,30.21,29.99,12,1,12,0.00
2013-3-20,59.0,39.3,28.0,28.2,19.7,15.5,77,47,26,30.22,29.96,12,0,12,0.00
2013-3-21,37.4,28.5,20.8,24.6,15.0,10.5,78,58,41,30.07,29.96,10,1,13,0.00
2013-3-22,49.8,35.6,19.4,24.3,17.4,8.9,70,49,32,30.14,30.06,0,0,1,0.00
2013-3-23,56.4,44.4,37.0,42.8,32.7,21.9,77,64,50,30.14,29.97,2,0,7,0.00
2013-3-24,49.1,43.4,38.4,44.2,38.7,34.9,88,83,72,30.02,29.63,12,1,14,0.71
2013-3-25,38.8,33.7,29.6,34.7,25.4,21.8,89,72,54,30.03,29.67,12,2,14,0.03
2013-3-26,38.1,31.1,27.3,29.5,25.0,22.0,85,78,68,30.30,30.03,11,1,11,0.00
2013-3-27,44.2,34.0,29.1,29.1,24.8,20.4,83,70,53,30.38,30.29,11,1,11,0.00
2013-3-28,51.2,35.6,22.6,28.6,21.0,16.0,79,58,37,30.41,30.33,12,1,14,0.00
2013-3-29,56.4,37.3,22.8,34.8,25.8,14.8,83,65,36,30.43,30.35,9,0,9,0.06
2013-3-30,63.1,49.1,38.4,46.8,39.3,34.0,88,71,50,30.35,30.16,7,0,9,0.16
2013-3-31,61.5,52.2,46.2,53.7,46.6,38.9,90,82,58,30.16,30.00,0,0,7,0.39
2013-4-1,58.1,49.4,39.0,49.3,41.8,32.4,92,76,56,30.15,30.02,16,0,16,0.02
2013-4-2,57.0,45.0,35.2,32.3,26.9,22.6,69,51,31,30.30,30.14,9,0,9,0.00
2013-4-3,62.2,45.8,31.1,31.7,23.5,16.5,57,42,28,30.36,30.27,5,0,11,0.00
2013-4-4,46.5,39.4,35.4,33.0,27.8,19.4,86,66,37,30.34,30.09,9,0,9,0.41
2013-4-5,54.8,43.7,36.8,43.8,36.3,30.7,90,77,52,30.21,30.07,11,0,11,0.00
2013-4-6,74.1,49.9,29.4,45.8,34.2,24.6,87,59,33,30.34,30.22,17,1,17,0.00
2013-4-7,76.4,59.2,46.7,49.4,40.0,32.2,62,50,37,30.32,30.20,12,1,12,0.00
2013-4-8,80.4,60.7,43.1,55.7,46.0,36.1,80,60,41,30.29,30.18,15,1,15,0.00
2013-4-9,87.8,66.3,47.4,61.0,51.0,40.5,82,60,39,30.35,30.23,8,0,11,0.00
2013-4-10,90.6,71.4,49.6,60.4,53.8,43.0,83,56,35,30.27,30.10,12,1,14,0.02
2013-4-11,80.6,68.4,60.6,59.2,54.6,50.8,88,63,43,30.12,29.87,11,1,14,1.07
2013-4-12,64.9,58.2,46.5,57.0,50.0,36.5,91,76,49,30.06,29.80,7,0,7,0.59
2013-4-13,69.6,54.8,44.4,43.9,37.7,34.5,73,55,32,30.20,30.06,8,0,8,0.00
2013-4-14,70.5,53.9,37.4,47.2,39.5,30.5,82,60,38,30.24,30.11,11,1,16,0.00
2013-4-15,78.6,60.7,52.1,60.2,51.4,44.7,86,72,51,30.33,30.11,8,0,8,0.04
2013-4-16,87.2,67.7,56.3,63.1,55.6,50.0,84,67,42,30.40,30.30,6,0,8,0.00
2013-4-17,73.5,64.8,58.8,63.3,56.7,51.2,89,75,65,30.40,30.26,1,0,8,0.23
2013-4-18,75.9,67.0,58.8,60.2,56.4,52.8,82,70,51,30.27,30.08,14,1,18,0.00
2013-4-19,66.7,58.4,41.5,60.5,53.3,35.7,89,83,74,30.13,29.90,16,2,18,0.46
2013-4-20,59.5,45.3,34.3,37.9,32.1,28.2,79,62,39,30.40,30.13,7,0,7,0.00
2013-4-21,68.0,47.9,31.2,43.3,33.7,25.7,84,61,37,30.52,30.40,9,0,11,0.00
2013-4-22,75.0,53.2,37.0,50.2,37.4,29.0,79,57,35,30.49,30.30,10,0,10,0.00
2013-4-23,81.6,56.3,35.0,50.6,37.9,25.1,74,52,31,30.38,30.20,10,0,13,0.00
2013-4-24,73.9,60.5,48.0,55.9,48.1,39.7,79,65,47,30.29,30.14,12,0,12,0.04
2013-4-25,69.2,51.8,40.8,43.4,35.0,25.0,83,58,24,30.46,30.29,15,0,15,0.00
2013-4-26,75.7,52.3,32.1,47.1,35.2,24.3,79,55,33,30.53,30.39,10,0,10,0.00
2013-4-27,56.4,52.3,49.8,49.6,46.4,42.7,89,80,69,30.49,30.34,8,0,8,0.66
2013-4-28,52.5,49.7,46.5,49.9,46.5,42.0,92,89,82,30.35,30.10,10,0,13,0.89
2013-4-29,76.6,59.6,49.2,61.3,52.3,47.0,93,79,50,30.20,30.08,6,0,6,0.00
2013-4-30,83.6,64.6,51.9,61.7,54.0,48.0,88,71,45,30.30,30.14,8,0,9,0.00
2013-5-1,70.7,61.1,51.0,55.2,51.3,45.1,84,71,55,30.40,30.30,14,1,14,0.08
2013-5-2,72.6,60.0,54.3,58.2,51.5,48.0,82,74,58,30.41,30.34,11,0,13,0.00
2013-5-3,68.9,58.6,52.3,53.3,48.7,45.4,82,71,56,30.34,30.19,13,1,14,0.00
2013-5-4,62.7,53.5,47.6,50.2,44.3,37.3,85,71,61,30.20,30.08,15,2,15,0.19
2013-5-5,52.8,49.9,47.3,49.8,46.7,44.2,91,89,85,30.10,29.94,13,0,13,1.51
2013-5-6,66.0,54.1,50.1,53.3,49.6,47.5,92,86,58,30.00,29.92,10,1,10,0.04
2013-5-7,71.4,55.2,41.5,50.8,45.0,36.6,87,70,44,30.11,30.01,7,0,8,0.02
2013-5-8,66.5,57.7,50.9,57.4,51.4,46.4,88,80,65,30.21,30.08,4,0,6,0.04
2013-5-9,82.7,63.1,52.3,63.2,52.7,47.7,89,72,41,30.28,30.19,8,0,8,0.02
2013-5-10,78.6,62.5,49.6,63.5,54.4,44.1,87,76,54,30.27,30.11,5,0,10,0.06
2013-5-11,77.9,63.2,55.2,65.6,57.3,51.3,88,82,61,30.14,30.02,0,0,0,0.21
2013-5-12,67.4,54.7,42.2,51.3,43.0,31.8,88,67,39,30.23,30.08,0,0,0,0.40
2013-5-13,66.0,49.4,37.7,39.1,33.4,30.8,77,57,33,30.33,30.22,0,0,0,0.00
2013-5-14,87.0,51.8,34.3,54.3,37.7,27.1,79,62,33,30.38,30.23,0,0,0,0.17
2013-5-15,90.3,74.3,47.8,62.0,54.7,42.2,85,54,33,30.29,30.16,0,0,0,0.00
2013-5-16,82.0,67.8,51.4,60.3,54.0,45.8,84,63,45,30.24,30.16,0,0,0,0.00
2013-5-17,85.2,66.9,52.5,63.1,54.1,46.2,85,66,43,30.29,30.19,0,0,0,0.00
2013-5-18,69.2,64.8,60.9,62.6,58.3,53.4,89,80,62,30.26,30.20,0,0,0,0.79
2013-5-19,81.1,67.5,61.1,69.0,61.2,56.6,88,81,62,30.27,30.17,0,0,0,0.04
2013-5-20,89.9,71.0,60.0,68.9,61.8,55.9,90,75,47,30.29,30.19,0,0,0,0.00
2013-5-21,93.3,72.7,60.0,70.9,61.5,55.2,87,70,45,30.25,30.12,0,0,0,0.00
2013-5-22,83.8,67.0,58.8,68.7,59.2,53.6,87,77,54,30.19,30.11,0,0,0,0.00
2013-5-23,84.9,71.4,59.1,64.4,59.0,53.0,91,68,40,30.15,30.03,0,0,0,0.06
2013-5-24,68.7,60.2,55.0,52.7,47.4,37.3,84,65,40,30.34,30.13,4,0,7,0.02
2013-5-25,78.4,56.9,39.3,49.8,40.3,33.7,83,58,30,30.46,30.34,3,0,6,0.00
2013-5-26,80.4,63.7,52.8,53.9,47.8,41.4,77,58,38,30.43,30.33,4,0,4,0.00
2013-5-27,90.3,66.5,47.8,64.0,52.0,41.4,82,62,38,30.42,30.28,6,0,6,0.00
2013-5-28,90.6,73.0,58.8,65.1,58.0,50.9,78,61,39,30.37,30.29,6,0,8,0.00
2013-5-29,95.9,74.5,60.0,67.5,59.0,53.2,82,61,36,30.40,30.30,3,0,4,0.00
2013-5-30,92.4,72.9,58.2,67.0,58.6,52.7,85,63,39,30.44,30.32,9,0,9,0.00
2013-5-31,92.6,74.9,63.1,64.0,59.2,55.0,80,60,37,30.38,30.28,9,0,9,0.00
2013-6-1,91.9,75.9,65.4,64.7,60.5,55.8,77,61,39,30.30,30.19,10,0,10,0.00
2013-6-2,71.6,67.0,63.5,66.7,62.1,60.2,90,84,69,30.23,30.10,4,0,5,0.67
2013-6-3,84.9,70.3,63.3,66.0,61.8,55.9,92,76,48,30.17,30.07,5,0,5,0.00
2013-6-4,93.2,71.9,58.8,69.5,60.3,54.1,88,69,42,30.25,30.15,0,0,3,0.00
2013-6-5,90.6,71.9,60.9,69.4,61.5,55.3,86,71,47,30.27,30.13,2,0,5,0.39
2013-6-6,81.6,69.7,63.6,70.5,63.9,59.7,91,82,65,30.16,29.96,6,0,6,0.04
2013-6-7,84.0,70.0,62.2,69.7,63.4,57.7,90,80,61,30.04,29.90,5,0,5,0.55
2013-6-8,80.6,68.1,58.8,68.1,61.5,56.2,92,80,60,30.27,30.03,4,0,4,0.33
2013-6-9,83.4,67.5,59.3,72.0,61.5,55.0,89,82,64,30.33,30.21,5,0,6,0.14
2013-6-21,79.3,71.4,65.3,60.6,58.2,56.5,74,63,53,30.40,30.35,0,0,0,0.00
2013-6-22,94.8,71.9,56.4,68.7,59.2,51.3,88,67,39,30.43,30.29,1,0,4,0.00
2013-6-23,91.0,72.0,59.5,71.8,61.8,54.0,86,71,51,30.40,30.31,0,0,3,0.00
2013-6-24,97.3,74.8,63.6,73.5,65.1,58.4,85,73,44,30.41,30.29,2,0,3,0.02
2013-6-25,86.1,72.9,64.2,70.7,64.8,59.2,87,77,56,30.34,30.21,0,0,0,0.00
2013-6-26,88.1,73.5,65.8,73.3,66.2,60.6,87,79,60,30.26,30.11,0,0,0,0.08
2013-6-27,88.3,72.5,64.5,74.6,66.4,61.1,90,82,61,30.16,30.00,3,0,4,0.24
2013-6-28,89.7,72.9,64.5,71.0,65.4,60.6,92,79,52,30.04,29.86,3,0,4,0.11
2013-6-29,92.8,72.4,63.3,68.6,61.7,56.2,90,72,39,29.93,29.87,0,0,2,0.02
2013-6-30,95.7,70.7,57.9,69.4,60.4,53.0,87,72,39,30.02,29.92,4,0,5,0.26
2013-7-1,82.5,70.1,64.5,73.4,64.3,61.1,90,83,67,30.14,29.99,2,0,6,0.74
2013-7-2,89.7,72.5,63.6,72.6,65.6,60.8,92,80,54,30.30,30.13,5,0,5,0.18
2013-7-3,75.0,67.7,61.8,71.4,63.6,59.2,92,87,79,30.41,30.27,0,0,2,1.16
2013-7-4,77.3,66.8,61.8,73.0,64.1,59.5,94,91,83,30.39,30.32,4,0,4,2.35
2013-7-5,90.8,72.0,66.0,73.2,66.2,63.5,92,83,55,30.40,30.33,4,0,4,0.02
2013-7-6,85.2,72.0,65.3,73.5,66.7,62.3,92,84,63,30.38,30.29,4,0,4,1.08
2013-7-7,78.4,71.2,67.6,72.8,67.7,64.8,92,89,81,30.35,30.28,0,0,0,0.51
2013-7-8,89.7,74.3,66.7,72.6,67.1,63.6,93,80,52,30.39,30.30,1,0,2,0.04
2013-7-9,99.6,73.9,0.0,76.4,65.4,-4.2,89,77,45,30.36,30.24,2,0,2,1.04
2013-7-10,87.0,69.0,66.9,77.3,65.5,64.1,92,89,73,30.32,30.16,0,0,0,1.59
2013-7-11,82.2,72.0,66.0,74.1,67.9,63.2,94,87,72,30.18,30.08,0,0,0,0.00
2013-7-12,83.8,72.7,66.0,70.1,65.6,61.5,92,79,56,30.21,30.09,2,0,5,0.08
2013-7-13,82.5,69.6,61.3,70.8,63.3,58.2,91,81,64,30.29,30.18,3,0,12,0.10
2013-7-14,76.1,69.9,65.8,73.3,66.8,62.8,92,90,86,30.45,30.29,0,0,0,0.92
2013-7-15,94.6,74.8,64.7,75.3,67.2,62.4,94,80,47,30.50,30.44,7,0,7,0.00
2013-7-16,91.5,72.5,62.9,75.9,66.3,59.0,90,82,55,30.52,30.43,4,0,4,0.25
2013-7-17,85.6,72.7,66.7,76.0,68.3,63.8,92,86,70,30.50,30.37,0,0,0,0.22
2013-7-18,88.8,74.3,66.9,77.9,69.1,64.4,93,84,66,30.42,30.28,0,0,4,0.00
2013-7-19,98.7,77.7,68.1,78.2,69.3,64.7,91,77,48,30.34,30.18,0,0,3,0.00
2013-7-20,84.3,74.8,68.9,74.3,68.2,64.8,89,80,69,30.25,30.15,6,0,6,0.00
2013-7-21,83.8,72.8,68.0,73.7,67.3,64.1,90,83,68,30.23,30.15,2,0,2,0.06
2013-7-22,93.7,75.0,66.0,75.2,67.2,62.9,91,78,51,30.21,30.03,0,0,2,0.29
2013-7-23,90.5,73.3,65.1,73.5,66.7,61.9,92,81,57,30.13,30.01,2,0,4,0.04
2013-7-24,88.3,73.6,66.0,72.8,65.9,62.6,90,78,54,30.08,30.01,4,0,7,0.00
2013-7-25,88.5,73.2,65.8,70.3,63.9,58.9,89,74,46,30.24,30.07,5,0,6,0.00
2013-7-26,91.5,72.5,60.0,72.9,63.2,55.5,89,74,50,30.28,30.19,2,0,5,0.00
2013-7-27,83.3,72.0,66.2,71.6,65.7,61.9,91,81,66,30.22,30.08,0,0,0,0.43
2013-7-28,84.9,72.6,64.9,70.0,64.7,58.9,90,77,54,30.24,30.11,4,0,6,0.00
2013-7-29,87.4,69.0,57.9,65.1,58.8,54.0,90,72,45,30.39,30.23,3,0,4,0.00
2013-7-30,82.2,68.2,56.8,69.1,59.9,52.1,88,76,59,30.41,30.33,0,0,0,0.02
2013-7-31,75.9,69.5,64.7,69.3,64.6,61.1,90,85,78,30.37,30.16,2,0,2,0.20
2013-8-1,85.1,73.2,67.1,71.4,66.6,61.7,91,81,60,30.19,30.12,5,0,5,0.00
2013-8-2,89.9,72.1,60.9,72.1,63.6,57.6,90,76,51,30.25,30.16,0,0,2,0.00
2013-8-3,85.6,72.4,63.3,70.8,64.3,58.7,89,77,56,30.24,30.18,4,0,4,0.00
2013-8-4,82.0,71.6,64.2,67.5,63.2,58.8,90,76,56,30.26,30.19,7,0,7,0.00
2013-8-5,94.1,73.1,60.9,73.2,63.4,56.7,89,74,47,30.27,30.16,0,0,4,0.02
2013-8-6,90.1,74.0,65.3,72.0,65.4,59.7,88,76,53,30.24,30.16,0,0,3,0.02
2013-8-7,78.6,72.2,69.4,70.4,66.7,64.1,88,83,73,30.25,30.20,5,0,5,0.14
2013-8-8,85.6,73.5,66.0,74.7,67.8,62.9,91,83,66,30.26,30.19,1,0,1,0.00
2013-8-9,85.1,73.7,67.2,76.5,68.8,63.8,90,85,67,30.29,30.21,0,0,0,0.25
2013-8-10,88.3,72.8,67.4,78.5,68.6,64.2,92,87,67,30.34,30.26,5,0,6,0.24
2013-8-11,86.7,72.5,66.0,75.8,68.0,63.5,93,86,69,30.35,30.25,0,0,2,0.23
2013-8-12,84.0,73.0,67.6,76.0,68.6,64.8,93,86,74,30.31,30.19,4,0,6,0.04
2013-8-13,85.1,73.7,69.0,76.3,68.1,64.1,91,83,65,30.19,30.06,6,0,9,0.02
2013-8-14,68.9,67.5,66.0,64.3,63.5,62.3,88,87,85,30.13,30.11,0,0,0,0.00
2013-8-18,76.6,69.4,66.7,66.9,63.6,62.2,86,82,71,30.37,30.30,0,0,2,0.04
2013-8-19,73.7,67.9,63.5,68.3,64.1,60.8,92,88,80,30.37,30.27,0,0,0,0.61
2013-8-20,83.8,71.2,64.0,72.5,65.8,61.1,92,84,67,30.38,30.29,0,0,0,0.00
2013-8-21,78.4,70.6,64.7,70.9,65.6,61.1,91,84,76,30.42,30.31,0,0,0,0.02
2013-8-22,85.1,72.8,65.8,71.3,65.8,61.8,91,80,60,30.37,30.24,5,0,5,0.00
2013-8-23,82.7,71.0,63.3,70.9,64.5,59.0,91,81,64,30.28,30.19,3,0,5,0.03
2013-8-24,87.0,71.2,64.0,68.2,61.6,55.0,89,73,45,30.47,30.29,3,0,3,0.00
2013-8-25,82.7,66.4,53.2,65.6,56.4,48.5,87,72,51,30.55,30.44,1,0,1,0.00
2013-8-26,82.5,66.4,55.4,66.2,58.1,50.7,88,76,57,30.50,30.33,3,0,4,0.00
2013-8-27,82.5,69.1,58.8,70.5,62.3,54.9,89,80,65,30.35,30.24,6,0,6,0.00
2013-8-28,86.3,73.5,64.9,72.0,66.1,61.1,89,79,60,30.26,30.17,3,0,5,0.00
2013-8-29,87.6,76.2,68.5,73.2,68.1,63.3,87,77,60,30.21,30.14,5,0,5,0.36
2013-8-30,88.1,74.7,67.2,74.7,68.1,64.5,92,81,60,30.25,30.14,1,0,1,0.00
2013-8-31,85.6,73.9,67.8,74.9,67.6,63.7,89,81,68,30.19,30.08,2,0,2,0.04
2013-9-1,88.3,72.0,67.1,74.4,66.7,63.2,89,84,60,30.13,30.05,0,0,0,0.31
2013-9-2,83.8,72.2,66.0,73.2,66.6,62.6,92,83,65,30.15,30.05,5,0,5,0.00
2013-9-3,80.7,69.8,62.2,68.9,63.6,59.3,92,81,63,30.21,30.06,4,0,5,0.53
2013-9-4,86.3,69.6,60.6,70.6,62.2,57.4,90,79,55,30.32,30.20,2,0,4,0.00
2013-9-5,80.6,67.9,59.7,66.6,59.8,55.5,89,77,52,30.35,30.29,2,0,4,0.00
2013-9-6,89.2,67.4,54.3,68.6,58.1,49.8,91,74,47,30.37,30.26,0,0,0,0.00
2013-9-7,83.6,68.2,58.4,67.6,59.8,53.9,87,76,53,30.32,30.20,3,0,5,0.00
2013-9-8,79.3,68.5,58.8,68.7,61.4,54.6,89,79,64,30.23,30.16,0,0,1,0.00
2013-9-9,87.8,71.8,62.2,72.0,63.5,58.3,89,76,53,30.34,30.22,4,0,4,0.00
2013-9-10,93.0,72.9,60.6,72.0,63.4,56.4,89,74,47,30.44,30.33,0,0,0,0.00
2013-9-11,85.2,72.3,63.3,71.3,64.5,58.5,88,77,60,30.43,30.30,2,0,2,0.00
2013-9-12,79.8,71.8,64.5,70.7,65.6,60.8,90,81,71,30.32,30.10,8,0,8,0.02
2013-9-13,75.0,65.0,54.8,63.3,58.1,49.1,93,79,55,30.14,30.05,5,0,8,0.28
2013-9-14,79.3,60.6,47.4,60.6,51.2,43.3,89,73,49,30.27,30.13,0,0,0,0.00
2013-9-15,83.8,64.3,51.8,64.5,55.4,47.3,89,74,50,30.37,30.27,0,0,0,0.00
2013-9-16,80.2,65.0,55.0,65.4,57.1,50.5,89,77,53,30.35,30.28,5,0,5,0.00
2013-9-17,76.6,64.6,58.8,58.5,54.9,52.0,85,72,52,30.44,30.34,3,0,3,0.00
2013-9-18,69.6,62.9,56.4,58.2,54.7,49.2,85,75,65,30.43,30.33,1,0,2,0.00
2013-9-19,80.0,67.6,60.9,66.9,60.6,57.2,89,79,60,30.36,30.26,0,0,2,0.00
2013-9-20,83.8,70.2,62.4,67.9,61.7,57.3,89,76,52,30.28,30.11,1,0,1,0.00
2013-9-21,69.0,63.5,59.7,63.2,59.6,57.4,93,87,76,30.12,29.92,4,0,5,1.02
2013-9-22,70.3,59.6,51.6,59.9,54.3,47.6,94,83,64,30.11,29.96,4,0,5,0.11
2013-9-23,77.9,61.2,50.7,64.2,54.0,46.3,91,78,58,30.21,30.11,4,0,4,0.00
2013-9-24,72.6,59.6,52.5,63.8,54.4,48.5,90,83,68,30.25,30.09,0,0,0,0.00
2013-9-25,64.9,61.8,58.4,62.0,58.0,55.8,91,87,81,30.11,30.03,0,0,0,0.61
2013-9-26,70.5,62.4,56.8,64.1,57.7,52.0,93,85,68,30.22,30.06,0,0,0,0.00
2013-9-27,75.3,62.3,55.2,63.3,55.7,51.0,91,80,60,30.34,30.22,0,0,0,0.00
2013-9-28,75.2,61.7,50.7,62.4,53.8,46.3,88,76,58,30.40,30.29,0,0,0,0.00
2013-9-29,73.7,61.2,50.7,59.7,52.9,45.3,86,75,57,30.33,30.19,0,0,0,0.00
2013-9-30,75.5,63.4,54.6,61.1,55.3,49.5,86,76,59,30.26,30.16,0,0,0,0.00
2013-10-1,78.4,63.4,54.5,64.1,55.6,49.4,89,77,56,30.34,30.23,2,0,3,0.00
2013-10-2,78.6,63.5,54.8,64.9,56.0,49.9,90,78,57,30.37,30.26,0,0,4,0.00
2013-10-3,79.8,65.1,56.3,66.8,57.8,52.3,89,78,59,30.33,30.24,0,0,0,0.00
2013-10-4,80.0,66.4,55.5,65.9,58.5,51.4,91,77,57,30.36,30.26,0,0,0,0.00
2013-10-5,84.0,67.6,58.2,68.5,59.5,53.4,90,77,55,30.35,30.22,0,0,0,0.00
2013-10-6,81.3,67.9,57.7,67.4,59.0,53.4,90,74,55,30.24,30.06,6,0,6,0.00
2013-10-7,68.0,57.7,48.7,60.9,53.1,44.8,92,85,73,30.22,30.00,7,0,7,1.00
2013-10-8,69.4,53.7,44.4,56.3,47.0,40.8,91,79,58,30.35,30.21,1,0,1,0.00
2013-10-9,71.2,57.6,42.6,56.3,49.1,38.3,90,74,58,30.38,30.26,5,0,5,0.00
2013-10-10,69.4,56.7,46.4,57.6,48.3,43.0,90,75,54,30.30,30.21,6,0,6,0.00
2013-10-11,72.6,58.7,46.2,59.5,50.1,41.6,90,74,56,30.24,30.15,8,0,8,0.00
2013-10-12,73.4,60.7,50.5,60.8,53.5,45.8,88,78,63,30.28,30.17,2,0,4,0.00
2013-10-13,71.4,64.3,58.2,61.5,57.8,53.9,88,80,70,30.38,30.27,2,0,3,0.00
2013-10-14,71.4,63.4,58.1,63.2,57.6,52.6,89,82,71,30.40,30.30,0,0,3,0.00
2013-10-15,71.7,60.4,50.5,60.9,53.6,46.7,90,79,65,30.35,30.21,0,0,1,0.00
2013-10-16,70.5,60.6,50.3,58.5,53.6,46.1,88,78,65,30.23,30.13,0,0,0,0.02
2013-10-17,71.4,62.4,54.8,63.6,57.4,49.7,89,84,75,30.14,30.01,3,0,4,0.04
2013-10-18,65.8,56.1,45.5,53.0,47.9,41.4,89,75,57,30.20,30.09,4,0,4,0.00
2013-10-19,61.1,54.6,49.8,54.9,48.1,43.5,87,79,65,30.13,30.03,4,0,6,0.00
2013-10-20,62.2,49.3,36.5,45.8,38.6,32.2,89,69,41,30.23,30.12,0,0,0,0.00
2013-10-21,68.1,51.0,35.6,54.3,42.3,31.1,89,73,54,30.28,30.14,6,0,6,0.00
2013-10-22,66.2,55.6,49.2,53.9,47.3,42.6,88,75,55,30.17,29.98,3,0,4,0.00
2013-10-23,54.1,45.1,35.4,42.4,35.6,26.9,85,70,52,30.19,29.92,8,1,10,0.02
2013-10-24,53.7,40.1,27.3,38.1,31.4,23.0,87,72,51,30.31,30.18,3,0,5,0.00
2013-10-25,49.1,35.8,25.7,34.2,26.3,20.5,86,69,46,30.48,30.30,6,0,7,0.00
2013-10-26,60.4,39.1,21.3,37.2,27.8,17.5,89,67,39,30.44,30.21,0,0,6,0.00
2013-10-27,66.2,54.1,44.4,47.9,42.0,35.2,82,64,51,30.27,30.20,0,0,4,0.00
2013-10-28,63.3,51.7,42.9,56.3,47.6,39.3,91,86,75,30.40,30.27,0,0,1,0.04
2013-10-29,69.9,56.7,45.1,56.7,48.1,42.4,93,75,47,30.47,30.37,0,0,0,0.00
2013-10-30,75.0,61.3,52.1,56.6,51.9,47.0,87,73,51,30.43,30.31,5,0,6,0.00
2013-10-31,64.0,60.2,50.5,58.0,52.9,47.0,90,77,65,30.33,29.94,10,1,14,0.00
2013-11-1,64.4,63.3,59.9,58.1,56.9,55.0,87,80,72,29.97,29.88,9,2,11,0.02